Weather History for Fremont, NE

Change the Weather History Date:

Sunday, January 13, 2013

  Actual Average Record
Temperature  
Mean Temperature 14 °F -  
Max Temperature 21 °F 32 °F 62 °F (1987)
Min Temperature 6 °F 11 °F -15 °F (1964)
Degree Days  
Heating Degree Days 52    
Moisture  
Dew Point 6 °F    
Average Humidity 73    
Maximum Humidity 88    
Minimum Humidity 52    
Precipitation  
Precipitation 0.00 in - - ()
Sea Level Pressure  
Sea Level Pressure 30.22 in    
Wind  
Wind Speed 10 mph (WNW)    
Max Wind Speed 18 mph    
Max Gust Speed 22 mph    
Visibility 10 miles    
Events      
Averages and records for this station are not official NWS values.
T = Trace of Precipitation, MM = Missing Value Source: NWS Daily Summary

Daily Weather History Graph

Daily Weather History Graph

Search for Another Location

Airport:

Trip Planner

Search our weather history database for the weather conditions in past years. The results will help you decide how hot, cold, wet, or windy it might be!

Date:

Astronomy

Jan. 13, 2013 Rise Set
Actual Time 7:50 AM CST 5:19 PM CST
Civil Twilight 7:20 AM CST 5:50 PM CST
Nautical Twilight 6:45 AM CST 6:24 PM CST
Astronomical Twilight 6:12 AM CST 6:57 PM CST
Moon 8:48 AM CST (1/13) 8:01 PM CST (1/13)
Length of Visible Light 10h 29m
Length of Day
9h 28m
Waxing Crescent, 5% of the Moon is Illuminated
Jan 13
Waxing Crescent
Jan 18
First Quarter
Jan 26
Full
Feb 3
Last Quarter
Feb 10
New

Hourly Weather History & Observations

Time (CST) Temp. Windchill Dew Point Humidity Pressure Visibility Wind Dir Wind Speed Gust Speed Precip Events Conditions
12:15 AM 11.3 °F -2.9 °F 6.6 °F 81% 30.14 in 10.0 mi NW 11.5 mph - N/A   Overcast
12:35 AM 11.3 °F -4.9 °F 6.4 °F 81% 30.14 in 10.0 mi NW 15.0 mph 19.6 mph N/A   Overcast
12:55 AM 10.6 °F -7.4 °F 5.0 °F 78% 30.14 in 10.0 mi NW 18.4 mph - N/A   Scattered Clouds
1:15 AM 10.2 °F -5.0 °F 4.6 °F 78% 30.14 in 10.0 mi NW 12.7 mph - N/A   Clear
1:35 AM 9.5 °F -2.6 °F 5.0 °F 82% 30.14 in 10.0 mi NW 8.1 mph - N/A   Clear
1:55 AM 9.5 °F -7.2 °F 5.0 °F 82% 30.13 in 10.0 mi NW 15.0 mph 18.4 mph N/A   Clear
2:15 AM 9.7 °F -5.7 °F 5.0 °F 81% 30.13 in 10.0 mi NW 12.7 mph - N/A   Clear
2:35 AM 9.3 °F -6.1 °F 5.2 °F 83% 30.15 in 10.0 mi WNW 12.7 mph - N/A   Clear
2:55 AM 9.5 °F -6.6 °F 5.4 °F 83% 30.14 in 10.0 mi NW 13.8 mph - N/A   Scattered Clouds
3:15 AM 9.5 °F -7.8 °F 5.0 °F 82% 30.15 in 10.0 mi WNW 16.1 mph - N/A   Clear
3:35 AM 9.5 °F -7.8 °F 4.1 °F 79% 30.15 in 10.0 mi NW 16.1 mph - N/A   Clear
3:55 AM 9.1 °F -6.4 °F 4.5 °F 81% 30.14 in 10.0 mi NW 12.7 mph 19.6 mph N/A   Clear
4:15 AM 9.1 °F -7.0 °F 4.1 °F 80% 30.13 in 10.0 mi NW 13.8 mph 17.3 mph N/A   Clear
4:35 AM 8.6 °F -7.0 °F 4.1 °F 82% 30.13 in 10.0 mi NW 12.7 mph 17.3 mph N/A   Clear
4:55 AM 8.6 °F -3.7 °F 4.1 °F 82% 30.13 in 10.0 mi NW 8.1 mph - N/A   Clear
5:15 AM 8.6 °F -3.7 °F 4.1 °F 82% 30.15 in 10.0 mi WNW 8.1 mph - N/A   Clear
5:35 AM 8.4 °F -5.7 °F 3.9 °F 82% 30.16 in 10.0 mi WNW 10.4 mph - N/A   Clear
5:55 AM 8.2 °F -4.1 °F 3.7 °F 82% 30.17 in 10.0 mi NW 8.1 mph - N/A   Clear
6:15 AM 7.9 °F -4.6 °F 3.4 °F 82% 30.17 in 10.0 mi NW 8.1 mph - N/A   Clear
6:35 AM 7.3 °F -4.1 °F 3.2 °F 83% 30.18 in 10.0 mi WNW 6.9 mph - N/A   Clear
6:55 AM 7.3 °F -5.2 °F 3.2 °F 83% 30.18 in 10.0 mi NW 8.1 mph - N/A   Clear
7:15 AM 7.0 °F -4.5 °F 3.2 °F 84% 30.19 in 10.0 mi NW 6.9 mph - N/A   Clear
7:35 AM 6.8 °F -4.8 °F 3.0 °F 84% 30.20 in 10.0 mi WNW 6.9 mph - N/A   Clear
7:55 AM 6.4 °F -2.4 °F 3.0 °F 86% 30.21 in 10.0 mi WNW 4.6 mph - N/A   Clear
8:15 AM 7.0 °F 0.1 °F 3.4 °F 85% 30.21 in 10.0 mi West 3.5 mph - N/A   Clear
8:35 AM 8.4 °F -1.6 °F 3.9 °F 82% 30.22 in 10.0 mi West 5.8 mph - N/A   Clear
8:55 AM 9.7 °F -2.4 °F 4.6 °F 80% 30.23 in 10.0 mi West 8.1 mph - N/A   Clear
9:15 AM 10.9 °F -0.8 °F 5.4 °F 78% 30.23 in 10.0 mi West 8.1 mph - N/A   Clear
9:35 AM 12.0 °F -1.3 °F 6.1 °F 77% 30.23 in 10.0 mi West 10.4 mph - N/A   Clear
9:55 AM 12.9 °F -0.9 °F 6.4 °F 75% 30.23 in 10.0 mi West 11.5 mph - N/A   Clear
10:15 AM 14.2 °F 0.0 °F 7.3 °F 74% 30.23 in 10.0 mi West 12.7 mph - N/A   Clear
10:35 AM 14.9 °F 0.3 °F 7.2 °F 71% 30.23 in 10.0 mi WNW 13.8 mph - N/A   Clear
10:55 AM 16.0 °F 1.1 °F 5.5 °F 63% 30.23 in 10.0 mi WNW 15.0 mph 18.4 mph N/A   Clear
11:15 AM 17.2 °F 3.9 °F 5.9 °F 61% 30.22 in 10.0 mi WNW 12.7 mph 18.4 mph N/A   Clear
11:35 AM 17.2 °F 5.2 °F 4.6 °F 58% 30.22 in 10.0 mi NW 10.4 mph 16.1 mph N/A   Clear
11:55 AM 18.1 °F 5.0 °F 4.8 °F 56% 30.22 in 10.0 mi WNW 12.7 mph - N/A   Clear
12:15 PM 18.5 °F 6.1 °F 3.9 °F 53% 30.21 in 10.0 mi WNW 11.5 mph 21.9 mph N/A   Clear
12:35 PM 18.5 °F 6.8 °F 5.4 °F 57% 30.21 in 10.0 mi WNW 10.4 mph 18.4 mph N/A   Clear
12:55 PM 19.4 °F 7.2 °F 6.3 °F 57% 30.20 in 10.0 mi NW 11.5 mph - N/A   Clear
1:15 PM 20.1 °F 8.8 °F 6.4 °F 55% 30.20 in 10.0 mi NW 10.4 mph - N/A   Clear
1:35 PM 20.1 °F 8.1 °F 5.7 °F 54% 30.20 in 10.0 mi West 11.5 mph - N/A   Clear
1:55 PM 20.8 °F 8.4 °F 5.9 °F 53% 30.20 in 10.0 mi WNW 12.7 mph 16.1 mph N/A   Clear
2:15 PM 21.2 °F 10.1 °F 6.8 °F 54% 30.20 in 10.0 mi West 10.4 mph 16.1 mph N/A   Clear
2:35 PM 21.2 °F 9.5 °F 6.1 °F 52% 30.20 in 10.0 mi West 11.5 mph 18.4 mph N/A   Clear
2:55 PM 21.6 °F 9.3 °F 6.6 °F 53% 30.21 in 10.0 mi WNW 12.7 mph - N/A   Clear
3:15 PM 21.2 °F 8.3 °F 6.6 °F 53% 30.22 in 10.0 mi West 13.8 mph - N/A   Clear
3:35 PM 21.4 °F 11.1 °F 7.3 °F 55% 30.23 in 10.0 mi West 9.2 mph - N/A   Clear
3:55 PM 21.6 °F 9.9 °F 7.3 °F 54% 30.23 in 10.0 mi WNW 11.5 mph - N/A   Clear
4:15 PM 21.2 °F 10.1 °F 7.3 °F 55% 30.24 in 10.0 mi WNW 10.4 mph - N/A   Clear
4:35 PM 20.8 °F 8.4 °F 7.3 °F 56% 30.24 in 10.0 mi WNW 12.7 mph - N/A   Clear
4:55 PM 19.9 °F 8.6 °F 7.0 °F 57% 30.25 in 10.0 mi WNW 10.4 mph - N/A   Clear
5:15 PM 18.9 °F 8.8 °F 6.8 °F 59% 30.26 in 10.0 mi WNW 8.1 mph - N/A   Clear
5:35 PM 16.9 °F 9.8 °F 7.3 °F 66% 30.26 in 10.0 mi WNW 4.6 mph - N/A   Clear
5:55 PM 14.9 °F 9.2 °F 7.7 °F 73% 30.26 in 10.0 mi WNW 3.5 mph - N/A   Clear
6:15 PM 15.4 °F - 7.7 °F 71% 30.27 in 10.0 mi Calm Calm - N/A   Clear
6:35 PM 15.3 °F 9.6 °F 7.5 °F 71% 30.26 in 10.0 mi West 3.5 mph - N/A   Clear
6:55 PM 14.0 °F 5.1 °F 8.1 °F 77% 30.26 in 10.0 mi West 5.8 mph - N/A   Clear
7:15 PM 14.0 °F 6.5 °F 7.3 °F 75% 30.27 in 10.0 mi WNW 4.6 mph - N/A   Clear
7:35 PM 13.1 °F 7.1 °F 7.7 °F 79% 30.27 in 10.0 mi West 3.5 mph - N/A   Clear
7:55 PM 11.5 °F 2.1 °F 6.3 °F 80% 30.28 in 10.0 mi West 5.8 mph - N/A   Clear
8:15 PM 12.6 °F - 7.5 °F 80% 30.28 in 10.0 mi Calm Calm - N/A   Clear
8:35 PM 12.7 °F 6.7 °F 7.5 °F 80% 30.28 in 10.0 mi WNW 3.5 mph - N/A   Clear
8:55 PM 11.5 °F - 6.6 °F 81% 30.28 in 10.0 mi Calm Calm - N/A   Clear
9:15 PM 11.1 °F - 7.0 °F 83% 30.29 in 10.0 mi Calm Calm - N/A   Clear
9:35 PM 11.7 °F - 7.5 °F 83% 30.29 in 10.0 mi Calm Calm - N/A   Clear
9:55 PM 12.0 °F - 7.9 °F 83% 30.29 in 10.0 mi Calm Calm - N/A   Clear
10:15 PM 11.8 °F - 7.5 °F 83% 30.30 in 10.0 mi Calm Calm - N/A   Clear
10:35 PM 9.0 °F 0.6 °F 5.2 °F 85% 30.30 in 10.0 mi West 4.6 mph - N/A   Clear
10:55 PM 8.6 °F 2.0 °F 5.7 °F 88% 30.31 in 10.0 mi West 3.5 mph - N/A   Clear
11:35 PM 9.0 °F - 5.7 °F 87% 30.32 in 10.0 mi Calm Calm - N/A   Clear
11:55 PM 9.0 °F - 5.5 °F 86% 30.32 in 10.0 mi Calm Calm - N/A   Clear